Volver al catálogo

ATLAS 5 CENTAUR DEB

ActivoHEO
NORAD 43990·DEBRIS·🇺🇸 United States

Lanzado Sep 17, 2014 desde Cape Canaveral Space Force Station

Loading…

Próximos Pases (próximas 24 horas)

TLE

ActualizadoSource: Space-Track

Época: Sep 5, 2026, 20:22 UTC

1 43990U 14055AV  26248.84908097 -.00000152  00000-0  00000-0 0  9996
2 43990  20.5005 126.7367 4719562 196.5427 140.3419  1.88649585 54644

Sigue ATLAS 5 CENTAUR DEB en tiempo real con AllMySat

Download on the App Store